When you browse on this site, cookies collect data to enhance your experience and personalize the content and advertising you see.
Visit our Privacy Policy to learn more. By continuing to use the site, you agree to this use of cookies and data.
  • Em Portugal
  • Lista de países
  • Para 7 dias
  • Temperatura da água
  • Mapa do tempo
  • Widgets de tempo
  • user-avatar
    Iniciar Sessão

    Previsão horária em Chigariha

    Hoje, 29 Fevereiro, Sábado

    Tempo Temperatura Precipitação Vento Pressão Humidade
    00:00 -5°C° 0.1 mm 3 m/s 725 mmHg 92%
    01:00 -7°C° 0.1 mm 4 m/s 726 mmHg 89%
    02:00 -7°C° 0.1 mm 4 m/s 726 mmHg 87%
    03:00 -8°C° 0 mm 4 m/s 726 mmHg 87%
    04:00 -8°C° 0 mm 4 m/s 727 mmHg 87%
    05:00 -7°C° 0 mm 3 m/s 727 mmHg 87%
    06:00 -8°C° 0 mm 4 m/s 727 mmHg 86%
    07:00 -7°C° 0 mm 4 m/s 727 mmHg 84%
    08:00 -7°C° 0 mm 4 m/s 727 mmHg 82%
    09:00 -5°C° 0.1 mm 4 m/s 727 mmHg 79%
    10:00 -5°C° 0.1 mm 4 m/s 728 mmHg 75%
    11:00 -4°C° 0.1 mm 4 m/s 728 mmHg 72%
    12:00 -4°C° 0.1 mm 4 m/s 728 mmHg 68%
    13:00 -4°C° 0.1 mm 4 m/s 728 mmHg 65%
    14:00 -3°C° 0.1 mm 4 m/s 728 mmHg 61%
    15:00 -4°C° 0 mm 3 m/s 729 mmHg 66%
    16:00 -5°C° 0 mm 3 m/s 729 mmHg 71%
    17:00 -5°C° 0 mm 2 m/s 729 mmHg 75%
    18:00 -5°C° 0 mm 2 m/s 730 mmHg 77%
    19:00 -6°C° 0 mm 2 m/s 730 mmHg 79%
    20:00 -6°C° 0 mm 2 m/s 730 mmHg 81%
    21:00 -6°C° 0 mm 2 m/s 730 mmHg 83%
    22:00 -6°C° 0 mm 2 m/s 731 mmHg 85%
    23:00 -6°C° 0 mm 2 m/s 731 mmHg 87%

    Amanhã, 1 Março, Domingo

    Tempo Temperatura Precipitação Vento Pressão Humidade
    00:00 -5°C° 0 mm 2 m/s 731 mmHg 86%
    01:00 -6°C° 0 mm 3 m/s 731 mmHg 86%
    02:00 -5°C° 0 mm 3 m/s 731 mmHg 86%
    03:00 -5°C° 0 mm 3 m/s 731 mmHg 88%
    04:00 -5°C° 0 mm 3 m/s 731 mmHg 90%
    05:00 -5°C° 0 mm 3 m/s 731 mmHg 92%
    06:00 -4°C° 0 mm 3 m/s 731 mmHg 90%
    07:00 -4°C° 0 mm 4 m/s 731 mmHg 88%
    08:00 -3°C° 0 mm 4 m/s 731 mmHg 85%
    09:00 -2°C° 0 mm 5 m/s 730 mmHg 81%
    10:00 -2°C° 0 mm 5 m/s 730 mmHg 77%
    11:00 -2°C° 0 mm 6 m/s 730 mmHg 72%
    12:00 -2°C° 0.1 mm 6 m/s 729 mmHg 80%
    13:00 -2°C° 0.1 mm 6 m/s 729 mmHg 87%
    14:00 -3°C° 0.1 mm 6 m/s 729 mmHg 94%
    15:00 -2°C° 0.1 mm 6 m/s 729 mmHg 92%
    16:00 -1°C° 0.1 mm 5 m/s 729 mmHg 90%
    17:00 -1°C° 0.1 mm 5 m/s 729 mmHg 89%
    18:00 -1°C° 0 mm 5 m/s 729 mmHg 89%
    19:00 -1°C° 0 mm 5 m/s 729 mmHg 90%
    20:00 -1°C° 0 mm 5 m/s 729 mmHg 91%
    21:00 -1°C° 0.1 mm 5 m/s 729 mmHg 93%
    22:00 -1°C° 0.1 mm 4 m/s 729 mmHg 94%
    23:00 -1°C° 0.1 mm 4 m/s 729 mmHg 96%

    Depois de amanhã, 2 Março, Segunda-feira

    Tempo Temperatura Precipitação Vento Pressão Humidade
    00:00 -1°C° 0.4 mm 4 m/s 729 mmHg 96%
    01:00 -1°C° 0.4 mm 4 m/s 729 mmHg 96%
    02:00 -1°C° 0.4 mm 4 m/s 729 mmHg 97%
    03:00 -1°C° 0.5 mm 4 m/s 729 mmHg 97%
    04:00 -1°C° 0.5 mm 4 m/s 729 mmHg 97%
    05:00 -1°C° 0.5 mm 4 m/s 729 mmHg 97%
    06:00 -1°C° 0.4 mm 4 m/s 729 mmHg 97%
    07:00 -1°C° 0.4 mm 4 m/s 729 mmHg 97%
    08:00 -1°C° 0.4 mm 4 m/s 729 mmHg 97%
    09:00 0°C° 0.1 mm 4 m/s 729 mmHg 97%
    10:00 0°C° 0.1 mm 4 m/s 729 mmHg 97%
    11:00 +1°C° 0.1 mm 3 m/s 729 mmHg 97%
    12:00 +1°C° 0.1 mm 3 m/s 729 mmHg 97%
    13:00 +1°C° 0.1 mm 3 m/s 729 mmHg 97%
    14:00 +1°C° 0.1 mm 3 m/s 730 mmHg 97%
    15:00 +1°C° 0.1 mm 3 m/s 730 mmHg 97%
    16:00 +1°C° 0.1 mm 3 m/s 730 mmHg 97%
    17:00 +2°C° 0.1 mm 2 m/s 730 mmHg 96%
    18:00 +2°C° 0 mm 2 m/s 731 mmHg 96%
    19:00 +2°C° 0 mm 2 m/s 731 mmHg 95%
    20:00 +2°C° 0 mm 2 m/s 731 mmHg 95%
    21:00 +1°C° 0.1 mm 3 m/s 731 mmHg 96%
    22:00 +1°C° 0.1 mm 3 m/s 731 mmHg 96%
    23:00 0°C° 0.1 mm 4 m/s 731 mmHg 96%

    3 Março, Terça-feira

    Tempo Temperatura Precipitação Vento Pressão Humidade
    00:00 -1°C° 0.1 mm 4 m/s 731 mmHg 96%
    01:00 -1°C° 0.1 mm 4 m/s 731 mmHg 97%
    02:00 -1°C° 0.1 mm 4 m/s 731 mmHg 97%
    03:00 -1°C° 0.3 mm 4 m/s 730 mmHg 97%
    04:00 -1°C° 0.3 mm 4 m/s 730 mmHg 97%
    05:00 0°C° 0.3 mm 3 m/s 729 mmHg 97%
    06:00 0°C° 0.5 mm 3 m/s 729 mmHg 97%
    07:00 0°C° 0.5 mm 3 m/s 729 mmHg 97%
    08:00 +1°C° 0.5 mm 3 m/s 729 mmHg 97%
    09:00 +1°C° 0.3 mm 3 m/s 729 mmHg 97%
    10:00 +1°C° 0.3 mm 3 m/s 729 mmHg 97%
    11:00 +2°C° 0.3 mm 2 m/s 729 mmHg 97%
    12:00 +2°C° 0.3 mm 2 m/s 729 mmHg 97%
    13:00 +2°C° 0.3 mm 2 m/s 729 mmHg 97%
    14:00 +3°C° 0.3 mm 2 m/s 729 mmHg 97%
    15:00 +3°C° 0 mm 2 m/s 730 mmHg 97%
    16:00 +2°C° 0 mm 2 m/s 730 mmHg 97%
    17:00 +2°C° 0 mm 2 m/s 731 mmHg 97%
    18:00 +2°C° 0 mm 2 m/s 731 mmHg 97%
    19:00 +2°C° 0 mm 2 m/s 732 mmHg 97%
    20:00 +2°C° 0 mm 2 m/s 733 mmHg 97%
    21:00 +2°C° 0 mm 2 m/s 733 mmHg 96%
    22:00 +3°C° 0 mm 1 m/s 733 mmHg 95%
    23:00 +3°C° 0 mm 1 m/s 734 mmHg 95%

    4 Março, Quarta-feira

    Tempo Temperatura Precipitação Vento Pressão Humidade
    00:00 +3°C° 0 mm 1 m/s 734 mmHg 94%
    01:00 +3°C° 0 mm 1 m/s 734 mmHg 94%
    02:00 +2°C° 0 mm 1 m/s 734 mmHg 93%
    03:00 +2°C° 0 mm 1 m/s 734 mmHg 94%
    04:00 +1°C° 0 mm 2 m/s 734 mmHg 94%
    05:00 +1°C° 0 mm 2 m/s 734 mmHg 94%
    06:00 +1°C° 0 mm 2 m/s 734 mmHg 94%
    07:00 0°C° 0 mm 3 m/s 734 mmHg 93%
    08:00 +1°C° 0 mm 3 m/s 734 mmHg 93%
    09:00 +1°C° 0 mm 4 m/s 734 mmHg 92%
    10:00 +1°C° 0 mm 4 m/s 734 mmHg 92%
    11:00 +3°C° 0 mm 4 m/s 734 mmHg 91%
    12:00 +3°C° 0 mm 4 m/s 733 mmHg 91%
    13:00 +4°C° 0 mm 4 m/s 733 mmHg 91%
    14:00 +4°C° 0 mm 4 m/s 733 mmHg 91%
    15:00 +4°C° 0.4 mm 4 m/s 733 mmHg 93%
    16:00 +3°C° 0.4 mm 4 m/s 732 mmHg 94%
    17:00 +3°C° 0.4 mm 4 m/s 732 mmHg 96%
    18:00 +3°C° 0.3 mm 3 m/s 732 mmHg 96%
    19:00 +3°C° 0.3 mm 3 m/s 732 mmHg 97%
    20:00 +3°C° 0.3 mm 3 m/s 732 mmHg 97%
    21:00 +3°C° 0.5 mm 3 m/s 732 mmHg 97%
    22:00 +3°C° 0.5 mm 3 m/s 731 mmHg 97%
    23:00 +4°C° 0.5 mm 3 m/s 731 mmHg 97%

    5 Março, Quinta-feira

    Tempo Temperatura Precipitação Vento Pressão Humidade
    00:00 +3°C° 0 mm 3 m/s 731 mmHg 96%
    01:00 +3°C° 0 mm 4 m/s 731 mmHg 95%
    02:00 +3°C° 0 mm 4 m/s 731 mmHg 95%
    03:00 +3°C° 0 mm 4 m/s 730 mmHg 94%
    04:00 +3°C° 0 mm 4 m/s 730 mmHg 92%
    05:00 +3°C° 0 mm 4 m/s 729 mmHg 91%
    06:00 +3°C° 0 mm 4 m/s 729 mmHg 90%
    07:00 +4°C° 0 mm 4 m/s 729 mmHg 88%
    08:00 +4°C° 0 mm 4 m/s 729 mmHg 87%
    09:00 +5°C° 0 mm 4 m/s 728 mmHg 85%
    10:00 +5°C° 0 mm 5 m/s 728 mmHg 82%
    11:00 +6°C° 0 mm 5 m/s 728 mmHg 80%
    12:00 +6°C° 0 mm 5 m/s 728 mmHg 80%
    13:00 +6°C° 0 mm 5 m/s 727 mmHg 79%
    14:00 +7°C° 0 mm 5 m/s 727 mmHg 79%
    15:00 +6°C° 0.4 mm 5 m/s 727 mmHg 81%
    16:00 +6°C° 0.4 mm 5 m/s 726 mmHg 84%
    17:00 +5°C° 0.4 mm 5 m/s 726 mmHg 86%
    18:00 +4°C° 0.1 mm 6 m/s 726 mmHg 86%
    19:00 +4°C° 0.1 mm 6 m/s 725 mmHg 86%
    20:00 +4°C° 0.1 mm 6 m/s 725 mmHg 86%
    21:00 +5°C° 0.1 mm 5 m/s 725 mmHg 86%
    22:00 +5°C° 0.1 mm 5 m/s 725 mmHg 87%
    23:00 +5°C° 0.1 mm 5 m/s 725 mmHg 88%
    Mostrar mais